TimeEST,TemperatureF,Dew PointF,Humidity,Sea Level PressureIn,VisibilityMPH,Wind Direction,Wind SpeedMPH,Gust SpeedMPH,PrecipitationIn,Events,Conditions,WindDirDegrees,DateUTC
12:54 AM,5.0,-4.0,66,30.34,10.0,WNW,10.4,-,N/A,,Clear,290,2013-01-22 05:54:00
1:54 AM,3.9,-4.0,70,30.33,10.0,WNW,10.4,17.3,N/A,,Clear,290,2013-01-22 06:54:00
2:54 AM,3.9,-4.0,70,30.35,10.0,WNW,10.4,-,N/A,,Clear,290,2013-01-22 07:54:00
3:54 AM,3.0,-4.0,73,30.36,10.0,WNW,6.9,-,N/A,,Clear,290,2013-01-22 08:54:00
4:54 AM,3.0,-4.0,73,30.37,10.0,WNW,10.4,-,N/A,,Clear,290,2013-01-22 09:54:00
5:54 AM,3.0,-4.0,73,30.37,10.0,NW,9.2,-,N/A,,Clear,310,2013-01-22 10:54:00
7:54 AM,1.9,-4.0,76,30.40,10.0,WNW,8.1,-,N/A,,Clear,290,2013-01-22 12:54:00
8:54 AM,3.0,-2.9,76,30.42,10.0,WNW,5.8,-,N/A,,Partly Cloudy,290,2013-01-22 13:54:00
9:54 AM,3.9,-4.0,70,30.43,10.0,NW,11.5,-,N/A,,Mostly Cloudy,320,2013-01-22 14:54:00
10:54 AM,7.0,-4.0,61,30.45,10.0,West,12.7,-,N/A,,Mostly Cloudy,280,2013-01-22 15:54:00
11:01 AM,6.8,-2.2,67,30.40,10.0,West,12.7,-,N/A,,Scattered Clouds,280,2013-01-22 16:01:00
11:54 AM,9.0,-4.0,56,30.43,10.0,WNW,11.5,18.4,N/A,,Scattered Clouds,300,2013-01-22 16:54:00
12:54 PM,12.0,-5.1,46,30.40,10.0,West,12.7,-,N/A,,Clear,270,2013-01-22 17:54:00
1:54 PM,14.0,-4.0,45,30.38,10.0,WNW,9.2,17.3,N/A,,Partly Cloudy,290,2013-01-22 18:54:00
2:54 PM,14.0,-6.0,41,30.38,10.0,WNW,12.7,-,N/A,,Clear,290,2013-01-22 19:54:00
3:54 PM,15.1,-5.1,41,30.38,10.0,West,16.1,-,N/A,,Clear,280,2013-01-22 20:54:00
4:54 PM,12.9,-6.0,43,30.38,10.0,NW,10.4,-,N/A,,Clear,310,2013-01-22 21:54:00
5:54 PM,12.0,-6.0,44,30.38,10.0,WNW,10.4,-,N/A,,Clear,290,2013-01-22 22:54:00
6:54 PM,12.0,-5.1,46,30.38,10.0,WNW,9.2,-,N/A,,Clear,300,2013-01-22 23:54:00
7:54 PM,12.0,-4.0,49,30.38,10.0,WNW,10.4,-,N/A,,Partly Cloudy,290,2013-01-23 00:54:00
8:54 PM,12.0,-4.0,49,30.38,10.0,NW,5.8,-,N/A,,Overcast,310,2013-01-23 01:54:00
9:54 PM,12.0,-2.0,53,30.39,10.0,WNW,5.8,-,N/A,,Overcast,300,2013-01-23 02:54:00
10:54 PM,12.0,-2.0,53,30.40,10.0,NW,6.9,-,N/A,,Overcast,310,2013-01-23 03:54:00
11:54 PM,10.9,-0.9,59,30.39,10.0,WNW,4.6,-,N/A,,Overcast,300,2013-01-23 04:54:00